IBE445 LEMD-LESO

Flight info

Callsign IBE445
Flight time 0h 46m
Altitude 26000
Route RBO3N RBO N867 GASMO T430 LPA/N0361F140 T430 DITOP N10 SSN SSN1T
Aircraft A320/M-SDE1E2E3FGHIJ2J3J4J5M1RWXYZ/LB1D1

Departure

Time 2026-05-01 13:11
Airport Adolfo Suárez Madrid–Barajas Airport (LEMD)

Arrival

Time 2026-05-01 13:58
Airport San Sebastián Airport (LESO)
Time Latitude Longitude Altitude Speed Heading
2026-05-01 12:26 40.49602 -3.58973 2015 ft 0 kts 270°
2026-05-01 13:00 40.49602 -3.58949 2014 ft 3 kts 270°
2026-05-01 13:00 40.49602 -3.58924 2014 ft 3 kts 270°
2026-05-01 13:01 40.49602 -3.58870 2014 ft 3 kts 270°
2026-05-01 13:01 40.49601 -3.58843 2014 ft 3 kts 270°
2026-05-01 13:01 40.49601 -3.58789 2014 ft 3 kts 270°
2026-05-01 13:02 40.49601 -3.58773 2014 ft 1 kts 271°
2026-05-01 13:07 40.49278 -3.58815 2014 ft 10 kts 172°
2026-05-01 13:07 40.49241 -3.58758 2014 ft 8 kts 98°
2026-05-01 13:07 40.49241 -3.58682 2014 ft 8 kts 89°
2026-05-01 13:08 40.49241 -3.58608 2014 ft 9 kts 90°
2026-05-01 13:08 40.49241 -3.58501 2014 ft 14 kts 90°
2026-05-01 13:08 40.49241 -3.58373 2014 ft 14 kts 90°
2026-05-01 13:08 40.49242 -3.58242 2014 ft 14 kts 89°
2026-05-01 13:09 40.49242 -3.58108 2014 ft 15 kts 90°
2026-05-01 13:09 40.49243 -3.57971 2014 ft 15 kts 89°
2026-05-01 13:09 40.49244 -3.57830 2014 ft 16 kts 89°
2026-05-01 13:09 40.49246 -3.57686 2014 ft 16 kts 89°
2026-05-01 13:10 40.49268 -3.57551 2014 ft 15 kts 68°
2026-05-01 13:10 40.49308 -3.57455 2014 ft 8 kts 32°
2026-05-01 13:10 40.49336 -3.57450 2014 ft 0 kts
2026-05-01 13:11 40.49487 -3.57450 2014 ft 56 kts 360°
2026-05-01 13:11 40.50142 -3.57456 2015 ft 130 kts 359°
2026-05-01 13:11 40.51235 -3.57463 2034 ft 182 kts
2026-05-01 13:11 40.52469 -3.57452 2836 ft 171 kts
2026-05-01 13:12 40.53670 -3.57417 3500 ft 178 kts
2026-05-01 13:12 40.54952 -3.57368 3921 ft 190 kts
2026-05-01 13:12 40.56286 -3.56988 4355 ft 202 kts 17°
2026-05-01 13:12 40.57684 -3.56378 4703 ft 223 kts 19°
2026-05-01 13:13 40.59228 -3.55717 5127 ft 242 kts 16°
2026-05-01 13:13 40.60896 -3.55093 5714 ft 255 kts 14°
2026-05-01 13:13 40.62658 -3.54488 6370 ft 266 kts 11°
2026-05-01 13:13 40.64481 -3.54043 7002 ft 274 kts
2026-05-01 13:14 40.66394 -3.53873 7776 ft 277 kts 358°
2026-05-01 13:14 40.68339 -3.53717 8569 ft 282 kts
2026-05-01 13:14 40.70282 -3.53198 9343 ft 290 kts 15°
2026-05-01 13:14 40.72041 -3.51832 10086 ft 301 kts 40°
2026-05-01 13:15 40.73346 -3.49610 10726 ft 312 kts 55°
2026-05-01 13:15 40.74502 -3.47092 11139 ft 329 kts 57°
2026-05-01 13:15 40.75715 -3.44401 11434 ft 355 kts 57°
2026-05-01 13:15 40.77039 -3.41570 11792 ft 369 kts 56°
2026-05-01 13:16 40.78453 -3.38672 12163 ft 383 kts 55°
2026-05-01 13:16 40.79947 -3.35687 12582 ft 393 kts 54°
2026-05-01 13:16 40.81432 -3.32720 13330 ft 391 kts 54°
2026-05-01 13:17 40.86577 -3.24793 15653 ft 378 kts 26°
2026-05-01 13:17 40.89032 -3.23612 16212 ft 375 kts
2026-05-01 13:18 40.94186 -3.22616 17308 ft 380 kts
2026-05-01 13:18 40.96822 -3.22141 17842 ft 383 kts
2026-05-01 13:18 40.99480 -3.21586 18365 ft 387 kts
2026-05-01 13:18 41.02147 -3.20967 18873 ft 390 kts
2026-05-01 13:19 41.04835 -3.20328 19367 ft 393 kts
2026-05-01 13:19 41.07505 -3.19706 19845 ft 396 kts
2026-05-01 13:19 41.12924 -3.18489 21035 ft 394 kts
2026-05-01 13:20 41.15621 -3.17890 21619 ft 393 kts
2026-05-01 13:20 41.18316 -3.17287 22193 ft 392 kts
2026-05-01 13:20 41.21004 -3.16680 22755 ft 391 kts
2026-05-01 13:21 41.26363 -3.15467 23846 ft 389 kts
2026-05-01 13:21 41.29008 -3.14869 24369 ft 389 kts
2026-05-01 13:21 41.31677 -3.14267 24887 ft 388 kts
2026-05-01 13:21 41.34334 -3.13666 25388 ft 387 kts
2026-05-01 13:22 41.36996 -3.13064 25846 ft 387 kts
2026-05-01 13:22 41.39648 -3.12462 25992 ft 386 kts
2026-05-01 13:22 41.42297 -3.11861 25995 ft 386 kts
2026-05-01 13:22 41.44054 -3.11463 25997 ft 386 kts
2026-05-01 13:23 41.46704 -3.10862 26000 ft 386 kts
2026-05-01 13:23 41.49350 -3.10261 26002 ft 386 kts
2026-05-01 13:23 41.51998 -3.09659 26002 ft 385 kts
2026-05-01 13:23 41.55501 -3.08861 26003 ft 385 kts
2026-05-01 13:24 41.57283 -3.08454 26004 ft 385 kts
2026-05-01 13:24 41.59896 -3.07859 26004 ft 385 kts
2026-05-01 13:24 41.62548 -3.07254 26006 ft 385 kts
2026-05-01 13:25 41.67834 -3.06044 26004 ft 385 kts
2026-05-01 13:25 41.70483 -3.05437 26003 ft 385 kts
2026-05-01 13:25 41.73087 -3.04496 25982 ft 391 kts 19°
2026-05-01 13:25 41.75461 -3.02689 25978 ft 395 kts 31°
2026-05-01 13:26 41.77684 -3.00523 25966 ft 396 kts 34°
2026-05-01 13:26 41.79845 -2.98271 25969 ft 401 kts 35°
2026-05-01 13:26 41.82084 -2.95946 25991 ft 413 kts 34°
2026-05-01 13:26 41.84427 -2.93600 25999 ft 425 kts 33°
2026-05-01 13:27 41.86868 -2.91238 26003 ft 436 kts 33°
2026-05-01 13:27 41.89368 -2.88845 26005 ft 446 kts 33°
2026-05-01 13:27 41.94425 -2.83921 26007 ft 455 kts 33°
2026-05-01 13:28 41.99549 -2.78844 26005 ft 458 kts 34°
2026-05-01 13:28 42.02120 -2.76307 26004 ft 458 kts 33°
2026-05-01 13:29 42.07280 -2.71238 26004 ft 458 kts 33°
2026-05-01 13:29 42.12430 -2.66156 26004 ft 458 kts 33°
2026-05-01 13:30 42.22686 -2.55992 25999 ft 458 kts 34°
2026-05-01 13:31 42.27831 -2.50879 25987 ft 458 kts 34°
2026-05-01 13:31 42.35501 -2.43237 25967 ft 458 kts 34°
2026-05-01 13:32 42.40635 -2.38114 25954 ft 458 kts 34°
2026-05-01 13:33 42.48316 -2.30414 25678 ft 451 kts 34°
2026-05-01 13:33 42.53284 -2.25426 24115 ft 448 kts 34°
2026-05-01 13:34 42.58245 -2.20442 22879 ft 436 kts 34°
2026-05-01 13:34 42.63105 -2.15542 21464 ft 431 kts 34°
2026-05-01 13:35 42.67874 -2.10719 20267 ft 422 kts 34°
2026-05-01 13:35 42.70218 -2.08350 19697 ft 417 kts 34°
2026-05-01 13:35 42.74799 -2.03709 18664 ft 407 kts 34°
2026-05-01 13:36 42.77057 -2.01420 18163 ft 402 kts 34°
2026-05-01 13:36 42.79284 -1.99164 17676 ft 397 kts 34°
2026-05-01 13:36 42.83641 -1.94739 16750 ft 388 kts 34°
2026-05-01 13:37 42.85791 -1.92550 16290 ft 383 kts 34°
2026-05-01 13:37 42.87918 -1.90383 15839 ft 379 kts 34°
2026-05-01 13:37 42.90017 -1.88239 15422 ft 374 kts 34°
2026-05-01 13:37 42.92093 -1.86120 15006 ft 370 kts 34°
2026-05-01 13:38 42.96196 -1.81928 14036 ft 366 kts 34°
2026-05-01 13:38 42.98224 -1.79852 13586 ft 362 kts 34°
2026-05-01 13:38 43.00250 -1.77917 13141 ft 356 kts 26°
2026-05-01 13:39 43.02541 -1.76812 12706 ft 346 kts
2026-05-01 13:39 43.04909 -1.76899 12258 ft 339 kts 348°
2026-05-01 13:39 43.07223 -1.77467 11792 ft 337 kts 345°
2026-05-01 13:39 43.09520 -1.78118 11336 ft 337 kts 345°
2026-05-01 13:40 43.11822 -1.78739 10880 ft 336 kts 346°
2026-05-01 13:40 43.14128 -1.79286 10439 ft 335 kts 347°
2026-05-01 13:40 43.16398 -1.79771 10226 ft 323 kts 347°
2026-05-01 13:40 43.18575 -1.80223 10099 ft 310 kts 347°
2026-05-01 13:41 43.20636 -1.80666 9975 ft 297 kts 347°
2026-05-01 13:41 43.22635 -1.81112 9815 ft 286 kts 346°
2026-05-01 13:41 43.24600 -1.81510 9398 ft 287 kts 352°
2026-05-01 13:41 43.26607 -1.81271 8955 ft 292 kts
2026-05-01 13:42 43.28587 -1.80656 8543 ft 291 kts 10°
2026-05-01 13:42 43.30550 -1.79974 8131 ft 289 kts 10°
2026-05-01 13:42 43.32498 -1.79331 7718 ft 287 kts
2026-05-01 13:42 43.34425 -1.78759 7305 ft 285 kts
2026-05-01 13:43 43.36362 -1.78216 6883 ft 283 kts
2026-05-01 13:43 43.38281 -1.77669 6466 ft 281 kts
2026-05-01 13:43 43.40180 -1.77105 6113 ft 276 kts
2026-05-01 13:43 43.42046 -1.76546 5731 ft 272 kts
2026-05-01 13:44 43.43885 -1.76001 5339 ft 268 kts
2026-05-01 13:44 43.45704 -1.75465 4935 ft 266 kts 10°
2026-05-01 13:44 43.47477 -1.74941 4548 ft 262 kts 11°
2026-05-01 13:44 43.49249 -1.74416 4178 ft 260 kts 11°
2026-05-01 13:45 43.51022 -1.73892 3816 ft 260 kts 12°
2026-05-01 13:45 43.52783 -1.73316 3454 ft 260 kts 19°
2026-05-01 13:45 43.54288 -1.71988 3092 ft 258 kts 48°
2026-05-01 13:45 43.55088 -1.69814 2764 ft 256 kts 79°
2026-05-01 13:46 43.54968 -1.67435 2471 ft 252 kts 110°
2026-05-01 13:46 43.53972 -1.65492 2197 ft 253 kts 141°
2026-05-01 13:46 43.52395 -1.64386 1998 ft 257 kts 167°
2026-05-01 13:46 43.50645 -1.64442 1981 ft 246 kts 197°
2026-05-01 13:47 43.49218 -1.65525 1992 ft 226 kts 220°
2026-05-01 13:47 43.48129 -1.67001 2001 ft 214 kts 225°
2026-05-01 13:47 43.47056 -1.68414 2001 ft 214 kts 218°
2026-05-01 13:47 43.45825 -1.69564 2003 ft 214 kts 211°
2026-05-01 13:48 43.44552 -1.70628 2008 ft 221 kts 212°
2026-05-01 13:48 43.43263 -1.71762 2012 ft 217 kts 213°
2026-05-01 13:48 43.42049 -1.72895 1968 ft 205 kts 214°
2026-05-01 13:48 43.40880 -1.73996 1707 ft 205 kts 214°
2026-05-01 13:49 43.39707 -1.75082 1313 ft 199 kts 213°
2026-05-01 13:49 43.38559 -1.76133 1388 ft 207 kts 214°
2026-05-01 13:49 43.37352 -1.77334 1715 ft 221 kts 224°
2026-05-01 13:49 43.36493 -1.79085 1993 ft 224 kts 250°
2026-05-01 13:50 43.36293 -1.81208 2008 ft 226 kts 277°
2026-05-01 13:50 43.36852 -1.83304 2020 ft 246 kts 303°
2026-05-01 13:50 43.38083 -1.84996 2024 ft 256 kts 324°
2026-05-01 13:50 43.39660 -1.86154 2022 ft 257 kts 337°
2026-05-01 13:51 43.41305 -1.87047 2016 ft 257 kts 339°
2026-05-01 13:51 43.42991 -1.87874 2007 ft 257 kts 344°
2026-05-01 13:51 43.44762 -1.88071 1998 ft 257 kts
2026-05-01 13:51 43.46495 -1.87463 2012 ft 257 kts 18°
2026-05-01 13:52 43.48123 -1.86449 2003 ft 257 kts 33°
2026-05-01 13:52 43.49544 -1.84987 2005 ft 248 kts 38°
2026-05-01 13:52 43.50824 -1.83524 1996 ft 229 kts 43°
2026-05-01 13:52 43.51707 -1.81800 1985 ft 216 kts 70°
2026-05-01 13:53 43.51867 -1.79790 1996 ft 213 kts 99°
2026-05-01 13:53 43.50656 -1.76140 2004 ft 205 kts 120°
2026-05-01 13:53 43.49958 -1.74484 2002 ft 197 kts 120°
2026-05-01 13:54 43.49267 -1.72853 2003 ft 197 kts 120°
2026-05-01 13:54 43.48577 -1.71228 2002 ft 197 kts 120°
2026-05-01 13:54 43.47820 -1.69669 2000 ft 193 kts 134°
2026-05-01 13:54 43.46724 -1.68816 1971 ft 174 kts 168°
2026-05-01 13:55 43.45600 -1.69008 1978 ft 159 kts 207°
2026-05-01 13:55 43.44747 -1.69883 2000 ft 152 kts 223°
2026-05-01 13:55 43.43986 -1.70899 2031 ft 153 kts 225°
2026-05-01 13:55 43.43229 -1.71942 1872 ft 155 kts 225°
2026-05-01 13:56 43.42465 -1.72956 1589 ft 147 kts 223°
2026-05-01 13:56 43.41748 -1.73884 1384 ft 140 kts 223°
2026-05-01 13:56 43.40956 -1.74658 1194 ft 140 kts 205°
2026-05-01 13:56 43.40041 -1.75118 1072 ft 140 kts 200°
2026-05-01 13:57 43.39143 -1.75639 937 ft 140 kts 204°
2026-05-01 13:57 43.38563 -1.76025 784 ft 139 kts 207°
2026-05-01 13:57 43.37498 -1.77030 424 ft 138 kts 218°
2026-05-01 13:57 43.36748 -1.77859 186 ft 138 kts 219°
2026-05-01 13:58 43.36002 -1.78680 30 ft 133 kts 218°
2026-05-01 13:58 43.35503 -1.79226 29 ft 46 kts 218°
2026-05-01 13:58 43.35314 -1.79435 29 ft 32 kts 219°
2026-05-01 13:58 43.35165 -1.79602 29 ft 20 kts 220°
2026-05-01 13:59 43.35096 -1.79714 29 ft 11 kts 242°
2026-05-01 13:59 43.35077 -1.79693 29 ft 5 kts 53°
2026-05-01 13:59 43.35130 -1.79631 29 ft 16 kts 39°
2026-05-01 13:59 43.35245 -1.79504 29 ft 24 kts 38°
2026-05-01 14:00 43.35378 -1.79362 29 ft 24 kts 38°
2026-05-01 14:00 43.35481 -1.79279 29 ft 13 kts 352°
2026-05-01 14:00 43.35532 -1.79334 29 ft 7 kts 309°
2026-05-01 14:00 43.35554 -1.79370 29 ft 5 kts 310°
2026-05-01 14:01 43.35565 -1.79389 29 ft 0 kts 310°
2026-05-01 14:01 43.35566 -1.79389 29 ft 0 kts 310°